| time (UTC) | temp C | wind direction | speed KPH | gust KPH | rain 1hr cm | rain 24hr cm | rain mn cm | humidity % | barometer mb |
| 20260503223004 | 26 | 332 | 4.8 | 12.9 | 0.00 | 0.00 | 0.00 | 33 | 1029.0 |
| 20260503221504 | 26 | 331 | 3.2 | 11.3 | 0.00 | 0.00 | 0.00 | 38 | 1029.2 |
| 20260503214503 | 26 | 32 | 3.2 | 11.3 | 0.00 | 0.00 | 0.00 | 36 | 1029.6 |
| 20260503213003 | 26 | 63 | 1.6 | 4.8 | 0.00 | 0.00 | 0.00 | 36 | 1029.8 |
| 20260503211505 | 26 | 48 | 1.6 | 8.0 | 0.00 | 0.00 | 0.00 | 36 | 1029.9 |
| 20260503210005 | 25 | 34 | 1.6 | 8.0 | 0.00 | 0.00 | 0.00 | 38 | 1030.1 |
| 20260503204504 | 25 | 19 | 3.2 | 8.0 | 0.00 | 0.00 | 0.00 | 41 | 1030.2 |
| 20260503203004 | 24 | 53 | 3.2 | 11.3 | 0.00 | 0.00 | 0.00 | 42 | 1030.2 |
| 20260503201505 | 24 | 46 | 1.6 | 4.8 | 0.00 | 0.00 | 0.00 | 41 | 1030.3 |
| 20260503200003 | 24 | 61 | 1.6 | 4.8 | 0.00 | 0.00 | 0.00 | 43 | 1030.5 |
| 20260503194505 | 23 | 52 | 1.6 | 6.4 | 0.00 | 0.00 | 0.00 | 43 | 1030.8 |
| 20260503193003 | 25 | 63 | 1.6 | 8.0 | 0.00 | 0.00 | 0.00 | 42 | 1030.9 |
| 20260503191504 | 24 | 4 | 1.6 | 6.4 | 0.00 | 0.00 | 0.00 | 37 | 1031.1 |
| 20260503190003 | 24 | 49 | 3.2 | 8.0 | 0.00 | 0.00 | 0.00 | 44 | 1031.1 |
| 20260503184503 | 23 | 29 | 1.6 | 6.4 | 0.00 | 0.00 | 0.00 | 45 | 1031.3 |
| 20260503183004 | 23 | 28 | 3.2 | 9.7 | 0.00 | 0.00 | 0.00 | 45 | 1031.4 |
| 20260503180004 | 22 | 37 | 3.2 | 6.4 | 0.00 | 0.00 | 0.00 | 49 | 1031.8 |
| 20260503173004 | 21 | 339 | 3.2 | 8.0 | 0.00 | 0.00 | 0.00 | 50 | 1032.1 |
| 20260503171504 | 22 | 332 | 3.2 | 8.0 | 0.00 | 0.00 | 0.00 | 49 | 1032.1 |
| 20260503081505 | 11 | 12 | 1.6 | 3.2 | 0.00 | 0.00 | 0.00 | 79 | 1031.8 |
| 20260503071504 | 13 | 11 | 1.6 | 4.8 | 0.00 | 0.00 | 0.00 | 68 | 1031.6 |
| 20260503053005 | 15 | 25 | 3.2 | 6.4 | 0.00 | 0.00 | 0.00 | 60 | 1031.5 |
| 20260503051504 | 16 | 295 | 1.6 | 8.0 | 0.00 | 0.00 | 0.00 | 56 | 1031.5 |
| 20260503050004 | 16 | 294 | 1.6 | 8.0 | 0.00 | 0.00 | 0.00 | 58 | 1031.4 |
| 20260503044503 | 17 | 224 | 0.0 | 3.2 | 0.00 | 0.00 | 0.00 | 56 | 1031.4 |
| 20260503043003 | 18 | 304 | 1.6 | 6.4 | 0.00 | 0.00 | 0.00 | 50 | 1031.3 |
| 20260503041504 | 18 | 304 | 3.2 | 9.7 | 0.00 | 0.00 | 0.00 | 48 | 1031.1 |
| 20260503040004 | 18 | 321 | 1.6 | 4.8 | 0.00 | 0.00 | 0.00 | 49 | 1031.0 |
| 20260503034505 | 18 | 331 | 3.2 | 8.0 | 0.00 | 0.00 | 0.00 | 50 | 1030.8 |
| 20260503033003 | 19 | 312 | 1.6 | 6.4 | 0.00 | 0.00 | 0.00 | 48 | 1030.7 |
| 20260503031503 | 19 | 314 | 3.2 | 8.0 | 0.00 | 0.00 | 0.00 | 48 | 1030.6 |
| 20260503030003 | 20 | 351 | 3.2 | 8.0 | 0.00 | 0.00 | 0.00 | 48 | 1030.5 |
| 20260503024504 | 20 | 306 | 1.6 | 6.4 | 0.00 | 0.00 | 0.00 | 46 | 1030.5 |
| 20260503023005 | 20 | 351 | 3.2 | 8.0 | 0.00 | 0.00 | 0.00 | 45 | 1030.5 |
| 20260503021503 | 21 | 330 | 3.2 | 9.7 | 0.00 | 0.00 | 0.00 | 45 | 1030.6 |
| 20260503020003 | 21 | 339 | 3.2 | 11.3 | 0.00 | 0.00 | 0.00 | 43 | 1030.7 |
| 20260503014503 | 22 | 341 | 3.2 | 8.0 | 0.00 | 0.00 | 0.00 | 42 | 1030.8 |
| 20260503013004 | 22 | 321 | 1.6 | 9.7 | 0.00 | 0.00 | 0.00 | 41 | 1030.9 |
| 20260503011506 | 23 | 346 | 3.2 | 12.9 | 0.00 | 0.00 | 0.00 | 40 | 1031.1 |
| 20260503010004 | 23 | 336 | 4.8 | 9.7 | 0.00 | 0.00 | 0.00 | 38 | 1031.1 |
| 20260503004505 | 25 | 311 | 4.8 | 11.3 | 0.00 | 0.00 | 0.00 | 36 | 1031.2 |
| 20260503003003 | 24 | 330 | 3.2 | 12.9 | 0.00 | 0.00 | 0.00 | 36 | 1031.2 |
| 20260503001503 | 24 | 324 | 3.2 | 11.3 | 0.00 | 0.00 | 0.00 | 37 | 1031.3 |
| 20260503000005 | 25 | 311 | 3.2 | 8.0 | 0.00 | 0.00 | 0.00 | 35 | 1031.4 |
| 20260502233003 | 25 | 334 | 4.8 | 14.5 | 0.00 | 0.00 | 0.00 | 37 | 1031.7 |
| 20260502231503 | 24 | 339 | 3.2 | 9.7 | 0.00 | 0.00 | 0.00 | 38 | 1031.9 |
| 20260502230005 | 24 | 332 | 4.8 | 11.3 | 0.00 | 0.00 | 0.00 | 39 | 1032.1 |